Flag for U.S.A. Weather past 2 weeks in Hollywood, Florida, U.S.A.

Now
75 °F

Partly sunny.


Feels Like: 77 °F
Forecast: 66 / 79 °F
Wind: 9 mph from Southeast

Location: Fort Lauderdale / Hollywood International Airport

Current Time: Dec 21, 2014 at 5:36:24 PM

Latest Report: Dec 21, 2014 at 4:53 PM


Visibility: 10 mi

Pressure: 30.02 "Hg

Humidity: 71%

Dew point: 65 °F

Location of HollywoodLocation

Historic Weather in Hollywood — Graph

°F

Hollywood temperature yesterday

Maximum temperature yesterday: 77 °F (at 11:53 AM)
Minimum temperature yesterday: 63 °F (at 4:53 AM)
Average temperature yesterday: 70 °F

Past Weeks' High & Low Weather Summary

 TemperatureHumidityPressure
High80 °F (Dec 7, 12:53 PM)97% (Dec 21, 6:53 AM)30.24 "Hg (Dec 21, 6:53 AM)
Low50 °F (Dec 10, 6:53 AM)34% (Dec 10, 1:53 PM)29.96 "Hg (Dec 9, 1:53 PM)
Average66 °F69%30.09 "Hg
* Reported Dec 6 3:53 PM — Dec 21 3:53 PM, Hollywood, Weather by CustomWeather, © 2014

Note: Actual official high and low records may vary slightly from our data, if they occured in-between our weather recording intervals... More about our weather records

Advertising

Hollywood weather history for previous 24 hours

 ConditionsComfort  
Time TempWeatherWind HumidityBarometerVisibility
3:53 PM
Dec 21
75 °FBroken clouds.12 mph69%30.02 "Hg10 mi
2:53 PM76 °FPartly sunny.14 mph69%30.01 "Hg10 mi
1:53 PM78 °FBroken clouds.12 mph64%30.03 "Hg10 mi
12:53 PM77 °FBroken clouds.13 mph64%30.06 "Hg10 mi
11:53 AM76 °FBroken clouds.10 mph69%30.09 "Hg10 mi
10:53 AM76 °FBroken clouds.13 mph69%30.11 "Hg10 mi
9:53 AM75 °FBroken clouds.9 mph71%30.10 "Hg10 mi
8:53 AM74 °FPartly sunny.No wind76%30.09 "Hg10 mi
7:53 AM67 °FPartly sunny.No wind93%30.09 "Hg10 mi
6:53 AM65 °FPassing clouds.No wind97%30.08 "Hg10 mi
5:53 AM66 °FPassing clouds.No wind93%30.06 "Hg10 mi
4:53 AM67 °FPassing clouds.No wind93%30.04 "Hg10 mi
3:53 AM66 °FPassing clouds.No wind93%30.04 "Hg10 mi
2:53 AM67 °FPassing clouds.No wind93%30.05 "Hg10 mi
1:53 AM68 °FPassing clouds.No wind90%30.06 "Hg10 mi
12:53 AM68 °FPassing clouds.No wind90%30.07 "Hg10 mi
11:53 PM
Dec 20
67 °FPassing clouds.No wind90%30.08 "Hg10 mi
10:53 PM69 °FPassing clouds.No wind84%30.09 "Hg10 mi
9:53 PM69 °FPassing clouds.No wind81%30.09 "Hg10 mi
8:53 PM67 °FPassing clouds.3 mph85%30.08 "Hg10 mi
7:53 PM72 °FPassing clouds.3 mph71%30.07 "Hg10 mi
6:53 PM72 °FPassing clouds.3 mph71%30.06 "Hg10 mi
5:53 PM72 °FPassing clouds.7 mph71%30.04 "Hg10 mi
Weather by CustomWeather, © 2014

See weather overviewHow to use our weather pages